TimeEDT,TemperatureF,Dew PointF,Humidity,Sea Level PressureIn,VisibilityMPH,Wind Direction,Wind SpeedMPH,Gust SpeedMPH,PrecipitationIn,Events,Conditions,WindDirDegrees,DateUTC
12:54 AM,75.0,71.1,87,30.21,9.0,Calm,Calm,-,N/A,,Clear,0,2013-07-17 04:54:00
1:54 AM,72.0,70.0,93,30.21,9.0,Calm,Calm,-,N/A,,Clear,0,2013-07-17 05:54:00
2:54 AM,75.9,71.1,85,30.19,10.0,Calm,Calm,-,N/A,,Clear,0,2013-07-17 06:54:00
3:54 AM,75.9,71.1,85,30.19,10.0,SW,4.6,-,N/A,,Clear,230,2013-07-17 07:54:00
4:54 AM,75.9,71.1,85,30.19,10.0,SW,3.5,-,N/A,,Clear,220,2013-07-17 08:54:00
5:54 AM,75.9,71.1,85,30.19,10.0,SW,3.5,-,N/A,,Mostly Cloudy,230,2013-07-17 09:54:00
6:54 AM,77.0,72.0,84,30.19,10.0,WSW,4.6,-,N/A,,Partly Cloudy,250,2013-07-17 10:54:00
7:54 AM,80.1,72.0,76,30.19,10.0,West,6.9,-,N/A,,Clear,260,2013-07-17 11:54:00
9:54 AM,87.1,72.0,61,30.20,10.0,Variable,5.8,-,N/A,,Partly Cloudy,0,2013-07-17 13:54:00
10:54 AM,89.1,71.1,55,30.20,10.0,Variable,3.5,-,N/A,,Clear,0,2013-07-17 14:54:00
11:54 AM,91.0,69.1,48,30.19,10.0,NW,8.1,-,N/A,,Mostly Cloudy,310,2013-07-17 15:54:00
12:54 PM,90.0,68.0,48,30.19,10.0,West,6.9,-,N/A,,Scattered Clouds,270,2013-07-17 16:54:00
1:54 PM,93.0,66.9,42,30.17,10.0,WSW,9.2,17.3,N/A,,Partly Cloudy,250,2013-07-17 17:54:00
2:54 PM,96.1,66.9,38,30.15,10.0,West,8.1,-,N/A,,Partly Cloudy,270,2013-07-17 18:54:00
3:54 PM,93.9,61.0,33,30.13,10.0,WNW,11.5,18.4,N/A,,Clear,290,2013-07-17 19:54:00
4:54 PM,96.1,61.0,31,30.10,10.0,West,11.5,19.6,N/A,,Clear,270,2013-07-17 20:54:00
5:54 PM,95.0,62.1,33,30.10,10.0,WNW,8.1,17.3,N/A,,Partly Cloudy,290,2013-07-17 21:54:00
6:54 PM,95.0,62.1,33,30.11,10.0,WNW,8.1,-,N/A,,Partly Cloudy,300,2013-07-17 22:54:00
7:54 PM,90.0,63.0,40,30.11,10.0,NW,4.6,-,N/A,,Clear,310,2013-07-17 23:54:00
8:54 PM,86.0,64.9,49,30.12,10.0,NW,3.5,-,N/A,,Scattered Clouds,310,2013-07-18 00:54:00
9:54 PM,82.9,66.0,56,30.10,10.0,Calm,Calm,-,N/A,,Clear,0,2013-07-18 01:54:00
10:54 PM,80.1,68.0,67,30.12,10.0,NNW,3.5,-,N/A,,Clear,330,2013-07-18 02:54:00
11:54 PM,75.0,68.0,79,30.12,10.0,NE,3.5,-,N/A,,Clear,40,2013-07-18 03:54:00